Regional Weather Roundup
Issued by NWS

Home | Current Version | Previous Version | Graphics & Text | Print | Product List | Glossary On
Versions: 1 2 3 4 5 6 7 8 9 10 11 12 13 14 15 16 17 18 19 20 21 22 23 24 25 26 27 28 29 30 31 32 33 34 35 36 37 38 39 40 41 42 43 44 45 46 47 48 49 50
000
ASUS43 KLOT 270103
RWRIL

ILLINOIS REGIONAL WEATHER ROUNDUP
NATIONAL WEATHER SERVICE CHICAGO/ROMEOVILLE IL
800 PM CDT SAT MAY 26 2018

NOTE: "FAIR" INDICATES FEW OR NO CLOUDS BELOW 12,000 FEET WITH NO
SIGNIFICANT WEATHER AND/OR OBSTRUCTIONS TO VISIBILITY.

* THESE STATIONS ARE NOT UNDER NWS QUALITY CONTROL. THEY ALSO MAY NOT
  REPORT WEATHER SUCH AS PRECIPITATION OR FOG.

ILZ001-002-007-009-015-016-024-270200-
NORTHWEST ILLINOIS

CITY           SKY/WX    TMP DP  RH WIND       PRES   REMARKS
MOLINE         FAIR      82  73  74 CALM      29.74R HX  87
STERLING*        N/A    N/A N/A N/A MISG        N/A
SAVANNA*       FAIR      86  67  52 CALM      29.75S HX  89
$$

ILZ003-004-008-010-011-017-018-270200-
NORTH CENTRAL ILLINOIS

CITY           SKY/WX    TMP DP  RH WIND       PRES   REMARKS
ROCKFORD       FAIR      84  60  44 SW3       29.76R HX  84
FREEPORT*      FAIR      82  64  54 SW3       29.78R HX  83
ROCHELLE*      FAIR      82  64  53 NW6       29.76S HX  84
DE KALB*       FAIR      83  63  50 CALM      29.77S HX  84
PERU*          FAIR      86  67  53 SW8       29.76R HX  89
$$

ILZ005-006-012>014-019>023-270200-
NORTHEAST ILLINOIS

CITY           SKY/WX    TMP DP  RH WIND       PRES   REMARKS
CHICAGO-OHARE  FAIR      83  59  44 E9        29.75R HX  83
CHICAGO-MIDWAY FAIR      83  58  42 E8        29.75R HX  83
AURORA         FAIR      86  61  42 NW5       29.75R HX  86
LANSING*       FAIR      83  65  54 CALM      29.76R HX  84
JOLIET*        FAIR      87  64  46 CALM      29.75R HX  88
WAUKEGAN       FAIR      73  59  61 SE6       29.75R
DUPAGE AIRPORT FAIR      86  61  42 NW3       29.75R HX  86
KANKAKEE*      FAIR      83  60  44 CALM      29.77S HX  83
WHEELING       FAIR      81  61  50 SE7       29.77R HX  82
MORRIS*        FAIR      84  62  47 SW5       29.74S HX  85
ROMEOVILLE*    FAIR      85  62  45 CALM      29.76R HX  85
$$

LMZ740>746-270200-
SOUTHERN LAKE MICHIGAN

STATION/POSITION SKY/WX   TEMP    WIND        PRES    VSBY  WAVE
                          AIR SEA DIR/SP/G                  HT/PER
                          (F)     (DEG/KT/KT) (MB)    (MI)  (FT/S)
SOUTHERN BUOY              55 41  170/  8/  8 1007.6          0
WILMETTE HARBOR            63 58  160/  6/  6   N/A           0
HARRISON CRIB              72     160/  7/  8   N/A
BURNHAM HARBOR                     CALM  /  2   N/A
CALUMET HARBOR             73     100/  5/  7 1007.4R
BURNS HARBOR               74      80/  8/  9 1008.5R
MICHIGAN CITY              78      40/  9/  9   N/A
MICHIGAN CITY 6N           72 68   80/  4/  4   N/A           0
ST. JOSEPH                 74 68     CALM     1007.9R         0
$$

ILZ025>027-034>036-040-047-049-050-058-095>099-270200-
WEST-CENTRAL ILLINOIS

CITY           SKY/WX    TMP DP  RH WIND       PRES   REMARKS
QUINCY         CLOUDY    76  70  82 CALM      29.78R
GALESBURG*     FAIR      82  71  69 S5        29.78R HX  86
MACOMB*        CLOUDY    74  65  75 CALM      29.78S
JACKSONVILLE*  CLOUDY    82  71  68 SW6       29.77S HX  86
PITTSFIELD*    TSTM      77  71  82 W5        29.80S
$$

ILZ028>032-037-038-041>044-048-051>054-059>061-270200-
CENTRAL ILLINOIS

CITY           SKY/WX    TMP DP  RH WIND       PRES   REMARKS
PONTIAC        FAIR      83  67  57 SW6       29.78R HX  86
DECATUR        FAIR      83  63  50 SW6       29.79R HX  84
PEORIA         FAIR      82  72  71 S3        29.76R HX  87
LACON*         FAIR      81  68  64 CALM      29.75R HX  83
LINCOLN*       FAIR      83  68  60 CALM      29.78R HX  86
SPRINGFIELD    FAIR      81  71  71 S6        29.77S HX  85
TAYLORVILLE    FAIR      82  70  67 S5        29.79R HX  85
$$

ILZ033-039-045-046-055>057-062-063-270200-
EAST-CENTRAL ILLINOIS

CITY           SKY/WX    TMP DP  RH WIND       PRES   REMARKS
CHAMPAIGN      FAIR      82  67  60 CALM      29.79R HX  84
DANVILLE*      CLOUDY    83  67  58 CALM      29.76R HX  85
RANTOUL*       FAIR      81  72  73 SW5       29.78R HX  85
MATTOON        FAIR      82  69  64 W5        29.78R HX  85
PARIS*         FAIR      83  65  53 CALM      29.79R HX  85
$$

ILZ079-100>102-270200-
SOUTHWEST ILLINOIS

CITY           SKY/WX    TMP DP  RH WIND       PRES   REMARKS
ALTON          PTCLDY    86  70  58 SW7       29.80R HX  90
BELLEVILLE     CLEAR     83  73  71 SW7       29.79R HX  88
CAHOKIA*       CLEAR     86  68  54 S5        29.78R HX  89
SPARTA*        PTCLDY    82  74  77 S6        29.82R HX  88
$$

ILZ064>066-069>071-074>076-080>082-084>086-088>090-092>094-270200-
SOUTH-CENTRAL ILLINOIS

CITY           SKY/WX    TMP DP  RH WIND       PRES   REMARKS
CARBONDALE     FAIR      80  72  76 S6        29.81R HX  84
CAIRO*         FAIR      82  73  74 SE3       29.81R HX  87
EFFINGHAM*     FAIR      82  69  63 SE3       29.81R HX  86
MARION         FAIR      79  70  73 CALM      29.82R HX  81
MT. VERNON     FAIR      81  70  69 CALM      29.81R HX  84
CENTRALIA*     PTCLDY    82  71  68 S5        29.80R HX  86
SALEM*         FAIR      85  69  57 S6        29.80S HX  89
METROPOLIS*    FAIR      81  73  76 CALM      29.83R HAZE    HX  85
$$

ILZ067-068-072-073-078-083-087-091-270200-
SOUTHEAST ILLINOIS

CITY           SKY/WX    TMP DP  RH WIND       PRES   REMARKS
LAWRENCEVILLE  MOCLDY    87  64  46 SW5       29.79R HX  88
FLORA*         FAIR      85  69  58 SW6       29.81R HX  89
FAIRFIELD*     FAIR      81  69  65 SW3       29.80R HX  84
HARRISBURG*    FAIR      81  72  74 CALM      29.82R HX  84
ROBINSON*      FAIR      82  68  63 W5        29.80R HX  84
CARMI*         FAIR      81  70  68 SW3       29.81R HX  85
$$

ABBREVIATIONS USED IN REMARKS
   TC - TEMPERATURE IN CELSIUS
  WCI - WIND CHILL INDEX
   HX - HEAT INDEX
  VSB - VISIBILITY
$$





USA.gov is the U.S. government's official web portal to all federal, state and local government web resources and services.